Lexington Weather

Lexington, Massachusetts, USA

30°F
1/23/2020 9:39am 
  • Lexington Conditions: Partly cloudy
  • Temperature: 29.7°F / -1.3°CWarmer 4.9°F than last hour.
  • Dew Point: 20.5°FIncreased 1.8°Fsince last hour.
  • Relative Humidity: 68%Decreased 9.0% since last hour.
  • Wind: Wind from SSW SSW Calm, 10-min avg: 1 mph, gust: 7 mph
  • Barometer: 30.34 in Steady
  • Visibility: 10 miles
  • Snow Today: 0.0 in
  •   

Regional Weather Roundup
for Boston / Norton, MA

        
000
ASUS41 KBOX 220500
RWRBOX

REGIONAL WEATHER ROUNDUP
NATIONAL WEATHER SERVICE BOSTON/NORTON MA
1200 AM EST WED JAN 22 2020

NOTE:  "FAIR" INDICATES FEW OR NO CLOUDS BELOW 12,000 FEET WITH NO 
SIGNIFICANT WEATHER AND/OR OBSTRUCTIONS TO VISIBILITY.

MAZALL-220600-
EASTERN MASSACHUSETTS
  
CITY           SKY/WX    TMP DP  RH WIND       PRES   REMARKS
BOSTON         MOCLDY    25   4  40 W5        30.41F WCI  19          
BEVERLY        FAIR      15   3  59 CALM      30.40F                  
LAWRENCE       FAIR      14   4  64 S5        30.41F WCI   6          
BEDFORD        FAIR      12   3  67 CALM      30.40F                  
BLUE HILL        N/A     18   2  49 W8        30.36F WCI   8          
NORWOOD        FAIR      15   6  67 CALM      30.42F                  
MARSHFIELD     NOT AVBL                                               
PLYMOUTH       FAIR      11   7  84 CALM      30.41F                  
TAUNTON        FAIR      10   6  84 CALM      30.42F                  
NEW BEDFORD    FAIR      11   7  84 MISG      30.42F                  
$$

MAZALL-220600-
CAPE COD AND THE ISLANDS
  
CITY           SKY/WX    TMP DP  RH WIND       PRES   REMARKS
FALMOUTH       CLEAR     10   5  79 CALM      30.42S                  
HYANNIS        NOT AVBL                                               
CHATHAM        FAIR      19  14  81 CALM      30.41F                  
PROVINCETOWN   FAIR      26  12  55 NW7       30.41F WCI  18          
NANTUCKET      FAIR      24  11  57 N6        30.41S WCI  17          
MARTHAS VNYRD  FAIR      11   4  73 NW3       30.42S                  
$$
 
MAZALL-220600-
CENTRAL AND WESTERN MASSACHUSETTS
  
CITY           SKY/WX    TMP DP  RH WIND       PRES   REMARKS
WORCESTER      FAIR      16   0  49 W8        30.33F WCI   5          
FITCHBURG      FAIR      13   5  70 CALM      30.39F                  
ORANGE         FAIR       3  -3  76 CALM      30.40F                  
SPRINGFIELD    FAIR       4  -1  81 CALM      30.40F                  
WESTFIELD      NOT AVBL                                               
NORTH ADAMS    CLOUDY    12   4  70 CALM      30.40F                  
PITTSFIELD     CLOUDY    21  10  62 CALM      30.34F                  
$$
 
RIZALL-220600-
RHODE ISLAND
  
CITY           SKY/WX    TMP DP  RH WIND       PRES   REMARKS
PROVIDENCE     FAIR      17   9  70 W5        30.43F WCI  10          
NEWPORT        FAIR      18   9  68 CALM      30.41F                  
BLOCK ISLAND   FAIR      23   9  55 N5        30.43F WCI  17          
SMITHFIELD     FAIR      13   3  64 CALM      30.39F                  
WESTERLY       FAIR      21   5  50 N3        30.43F                  
$$
 
CTZALL-220600-
CONNECTICUT
  
CITY           SKY/WX    TMP DP  RH WIND       PRES   REMARKS
BRADLEY INTL   FAIR      10   2  69 CALM      30.42F                  
HARTFORD       FAIR      14   6  70 CALM      30.44F                  
BRIDGEPORT     FAIR      23   6  48 CALM      30.45F                  
DANBURY        FAIR      12   5  73 CALM      30.43F                  
GROTON         NOT AVBL                                               
NEW HAVEN      FAIR      18   7  62 CALM      30.44F                  
CHESTER        NOT AVBL                                               
MERIDEN        FAIR      13   6  74 CALM      30.44F                  
WILLIMANTIC    FAIR      10   5  80 CALM      30.43F                  
OXFORD         FAIR      17   6  62 CALM      30.40F                  
$$

MEZ002-015-021-024-NHZ003-005-008-011-012-014-VTZ005-008-220600-
NORTHERN NEW ENGLAND
  
CITY           SKY/WX    TMP DP  RH WIND       PRES   REMARKS
PORTLAND ME    CLOUDY    15   6  67 W5        30.39S WCI   8          
BANGOR ME      MOCLDY     5   1  83 CALM      30.37S                  
CONCORD NH     FAIR      10   3  73 CALM      30.38F                  
MANCHESTER NH  MOCLDY    14   4  64 CALM      30.37F                  
NASHUA NH      FAIR      12   5  73 CALM      30.40F                  
PORTSMOUTH NH  MOCLDY    15  -3  45 SW5       30.37F WCI   8          
JAFFREY NH     FAIR      13   4  67 S3        30.33S                  
KEENE NH       FAIR       6   3  87 CALM      30.40F                  
BURLINGTON VT  CLOUDY    20   7  57 SW8       30.34F WCI  10          
MT. WASHINGTON FOG        1   1 100 W38         N/A  VSB 1/8 WCI -26  
$$

NYZ052-076-220600-
EASTERN NEW YORK
  
CITY           SKY/WX    TMP DP  RH WIND       PRES   REMARKS
ALBANY         FAIR      22  10  60 CALM      30.44F                  
NEW YORK CITY  MOCLDY    28   9  44 N6        30.45F WCI  22          
$$
 
ANZALL-220600-
MARINE OBSERVATIONS
  
STATION/POSITION TIME  TEMP    WIND        PRES    VSBY  WAVE
                       AIR SEA DIR/SP/G                  HT/PER
                 (UTC) (F)     (DEG/KT/KT) (MB)    (MI)  (FT/S)
BOSTON BUOY      0350   27 42  290/  8/ 12 1029.7          2/11
BUZZARDS BAY     0400   27     340/  7/ 12 1030.8S
NANTUCKET SOUND  0400                        N/A
MASS BAY-STELLWA 0404   26 41  320/  8/ 12 1028.2S  1 7/8  2/11
ISLE OF SHOALS   0400   23     280/  8/  9 1029.4S
S OF BLOCK IS    0430      45                N/A           2/11
$$

......................KEY.........................
  SKY/WX - SKY CONDITION/PRESENT WEATHER
  TMP    - TEMPERATURE IN FAHRENHEIT
  DWPT   - DEWPOINT IN FAHRENHEIT
  RH     - RELATIVE HUMIDITY IN PERCENT
  WIND   - DIRECTION AND SPEED IN MPH
  PRES   - MEAN SEA LEVEL PRESSURE IN INCHES OF HG
  WCI    - WIND CHILL INDEX
  VSB    - VISIBILITY IN MILES
  HX     - HEAT INDEX
  TC     - TEMPERATURE IN CELSIUS
  VRB    - VARIABLE WIND DIRECTION
  N/A    - NOT AVAILABLE
  
      

Other recent Regional Weather Roundups

Thu Jan 23, 9:10am

Thu Jan 23, 9:00am

Thu Jan 23, 8:10am

Thu Jan 23, 8:00am

Thu Jan 23, 7:10am

Thu Jan 23, 7:01am

Thu Jan 23, 6:10am

Thu Jan 23, 6:00am

Thu Jan 23, 5:10am

Thu Jan 23, 5:00am

Thu Jan 23, 4:10am

Thu Jan 23, 4:01am

Thu Jan 23, 3:10am

Thu Jan 23, 3:00am

Thu Jan 23, 2:10am

Thu Jan 23, 2:00am

Thu Jan 23, 1:10am

Thu Jan 23, 1:00am

Thu Jan 23, 12:10am

Thu Jan 23, 12:00am

Wed Jan 22, 11:10pm

Wed Jan 22, 11:01pm

Wed Jan 22, 10:10pm

Wed Jan 22, 10:00pm

Wed Jan 22, 9:10pm

Wed Jan 22, 9:00pm

Wed Jan 22, 8:10pm

Wed Jan 22, 8:01pm

Wed Jan 22, 7:10pm

Wed Jan 22, 7:00pm

Wed Jan 22, 6:10pm

Wed Jan 22, 6:01pm

Wed Jan 22, 5:10pm

Wed Jan 22, 5:00pm

Wed Jan 22, 4:10pm

Wed Jan 22, 4:00pm

Wed Jan 22, 3:10pm

Wed Jan 22, 3:00pm

Wed Jan 22, 2:10pm

Wed Jan 22, 2:00pm

Wed Jan 22, 1:10pm

Wed Jan 22, 1:00pm

Wed Jan 22, 12:10pm

Wed Jan 22, 12:00pm

Wed Jan 22, 11:10am

Wed Jan 22, 11:00am

Wed Jan 22, 10:10am

Wed Jan 22, 10:01am

Wed Jan 22, 9:10am

Wed Jan 22, 9:00am

Wed Jan 22, 8:10am

Wed Jan 22, 8:00am

Wed Jan 22, 7:10am

Wed Jan 22, 7:00am

Wed Jan 22, 6:10am

Wed Jan 22, 6:00am

Wed Jan 22, 5:10am

Wed Jan 22, 5:00am

Wed Jan 22, 4:10am

Wed Jan 22, 4:00am

Wed Jan 22, 3:10am

Wed Jan 22, 3:01am

Wed Jan 22, 2:10am

Wed Jan 22, 2:00am

Wed Jan 22, 1:10am

Wed Jan 22, 1:00am

Wed Jan 22, 12:10am

Tue Jan 21, 11:10pm

Tue Jan 21, 11:00pm

Tue Jan 21, 10:10pm

Tue Jan 21, 10:00pm

Tue Jan 21, 9:10pm

Tue Jan 21, 9:01pm

Tue Jan 21, 8:10pm

Tue Jan 21, 8:00pm

Tue Jan 21, 7:10pm

Tue Jan 21, 7:00pm

Tue Jan 21, 6:10pm

Tue Jan 21, 6:01pm

Tue Jan 21, 5:10pm

Tue Jan 21, 5:00pm

Tue Jan 21, 4:10pm

Tue Jan 21, 4:00pm

Tue Jan 21, 3:10pm

Tue Jan 21, 3:01pm

Tue Jan 21, 2:10pm

Tue Jan 21, 2:00pm

Tue Jan 21, 1:10pm

Tue Jan 21, 1:00pm

Tue Jan 21, 12:10pm

Tue Jan 21, 12:00pm

Tue Jan 21, 11:10am

Tue Jan 21, 11:00am

Tue Jan 21, 10:10am

Tue Jan 21, 10:00am

Tue Jan 21, 9:10am

Tue Jan 21, 9:00am

Tue Jan 21, 8:10am

Tue Jan 21, 8:00am

Tue Jan 21, 7:10am

Tue Jan 21, 7:00am

Tue Jan 21, 6:10am

Tue Jan 21, 6:00am

Tue Jan 21, 5:10am

Tue Jan 21, 5:00am

Tue Jan 21, 4:10am

Tue Jan 21, 4:00am

Tue Jan 21, 3:10am

Tue Jan 21, 3:00am

Tue Jan 21, 2:10am

Tue Jan 21, 2:01am

Tue Jan 21, 1:10am

Tue Jan 21, 1:00am

Tue Jan 21, 12:10am

Tue Jan 21, 12:00am

Mon Jan 20, 11:10pm

Mon Jan 20, 11:00pm

Mon Jan 20, 10:10pm

Mon Jan 20, 10:00pm

Mon Jan 20, 9:10pm

Mon Jan 20, 9:00pm

Mon Jan 20, 8:10pm

Mon Jan 20, 8:00pm

Mon Jan 20, 7:10pm

Mon Jan 20, 7:00pm

Mon Jan 20, 6:10pm

Mon Jan 20, 6:00pm

Mon Jan 20, 5:10pm

Mon Jan 20, 5:00pm

Mon Jan 20, 4:10pm

Mon Jan 20, 4:01pm

Mon Jan 20, 3:10pm

Mon Jan 20, 3:00pm

Mon Jan 20, 2:10pm

Mon Jan 20, 2:00pm

Mon Jan 20, 1:10pm

Mon Jan 20, 1:00pm

Mon Jan 20, 12:10pm

Mon Jan 20, 12:00pm

Mon Jan 20, 11:10am

Mon Jan 20, 11:00am

Mon Jan 20, 10:10am

Mon Jan 20, 10:00am

Meta data:

ID: 921eabde-ab03-4aa9-84ec-32a427b754f6
Link: https://api.weather.gov/products/921eabde-ab03-4aa9-84ec-32a427b754f6